DLH442 EDDS-EDDM

Flight info

Callsign DLH442
Flight time 0h 31m
Altitude 19000
Route ABTAL4B/25 ABTAL L173 RIXED Y161 RIDAR Z98 WLD T104 ROKIL ROKIL1B
Aircraft A20N/M-V/N

Departure

Time 2026-05-07 19:52
Airport Stuttgart Airport (EDDS)

Arrival

Time 2026-05-07 20:23
Airport Munich Airport (EDDM)
Time Latitude Longitude Altitude Speed Heading
2026-05-07 19:34 48.68858 9.19294 1285 ft 0 kts 344°
2026-05-07 19:37 48.68851 9.19297 1285 ft 2 kts 344°
2026-05-07 19:37 48.68837 9.19303 1268 ft 2 kts 344°
2026-05-07 19:37 48.68823 9.19309 1293 ft 2 kts 344°
2026-05-07 19:38 48.68810 9.19315 1289 ft 2 kts 349°
2026-05-07 19:38 48.68796 9.19314 1288 ft 2 kts 44°
2026-05-07 19:38 48.68791 9.19306 1288 ft 0 kts 75°
2026-05-07 19:41 48.68793 9.19316 1287 ft 5 kts 75°
2026-05-07 19:41 48.68819 9.19468 1289 ft 23 kts 74°
2026-05-07 19:41 48.68869 9.19719 1285 ft 26 kts 73°
2026-05-07 19:41 48.68875 9.19867 1285 ft 9 kts 148°
2026-05-07 19:42 48.68821 9.19920 1287 ft 10 kts 115°
2026-05-07 19:42 48.68838 9.20036 1286 ft 13 kts 73°
2026-05-07 19:42 48.68866 9.20184 1287 ft 16 kts 75°
2026-05-07 19:42 48.68897 9.20356 1288 ft 19 kts 73°
2026-05-07 19:43 48.68942 9.20588 1285 ft 25 kts 74°
2026-05-07 19:43 48.68993 9.20857 1289 ft 28 kts 74°
2026-05-07 19:43 48.69033 9.21067 1287 ft 0 kts 73°
2026-05-07 19:43 48.69038 9.21097 1288 ft 7 kts 73°
2026-05-07 19:44 48.69061 9.21213 1285 ft 15 kts 74°
2026-05-07 19:44 48.69101 9.21429 1286 ft 28 kts 74°
2026-05-07 19:44 48.69161 9.21742 1287 ft 33 kts 74°
2026-05-07 19:44 48.69227 9.22089 1286 ft 35 kts 74°
2026-05-07 19:45 48.69295 9.22447 1286 ft 35 kts 74°
2026-05-07 19:45 48.69363 9.22804 1285 ft 35 kts 73°
2026-05-07 19:45 48.69430 9.23157 1288 ft 35 kts 74°
2026-05-07 19:45 48.69497 9.23506 1289 ft 34 kts 74°
2026-05-07 19:46 48.69561 9.23851 1285 ft 34 kts 73°
2026-05-07 19:46 48.69603 9.24065 1286 ft 11 kts 75°
2026-05-07 19:46 48.69599 9.24183 1286 ft 5 kts 118°
2026-05-07 19:46 48.69575 9.24250 1287 ft 9 kts 118°
2026-05-07 19:47 48.69546 9.24294 1285 ft 0 kts 162°
2026-05-07 19:49 48.69516 9.24309 1287 ft 12 kts 162°
2026-05-07 19:50 48.69435 9.24331 1286 ft 23 kts 184°
2026-05-07 19:50 48.69381 9.24259 1289 ft 0 kts 251°
2026-05-07 19:50 48.69378 9.24247 1287 ft 0 kts 252°
2026-05-07 19:50 48.69377 9.24240 1286 ft 3 kts 253°
2026-05-07 19:51 48.69326 9.23975 1287 ft 59 kts 254°
2026-05-07 19:51 48.69152 9.23060 1286 ft 118 kts 253°
2026-05-07 19:51 48.68886 9.21669 1367 ft 152 kts 254°
2026-05-07 19:51 48.68569 9.20150 1863 ft 151 kts 252°
2026-05-07 19:52 48.68231 9.18638 2390 ft 153 kts 252°
2026-05-07 19:52 48.67909 9.17070 2829 ft 160 kts 254°
2026-05-07 19:52 48.67587 9.15407 3320 ft 170 kts 254°
2026-05-07 19:52 48.67250 9.13626 3867 ft 181 kts 254°
2026-05-07 19:53 48.66889 9.11734 4513 ft 193 kts 252°
2026-05-07 19:53 48.66365 9.09808 4893 ft 203 kts 241°
2026-05-07 19:53 48.65516 9.08004 5323 ft 220 kts 227°
2026-05-07 19:53 48.64226 9.06668 5896 ft 236 kts 197°
2026-05-07 19:54 48.62568 9.06707 6534 ft 250 kts 160°
2026-05-07 19:54 48.61206 9.08361 7212 ft 263 kts 120°
2026-05-07 19:54 48.60771 9.11065 7993 ft 273 kts 88°
2026-05-07 19:54 48.61100 9.13886 8848 ft 280 kts 77°
2026-05-07 19:55 48.61520 9.16832 9555 ft 294 kts 83°
2026-05-07 19:55 48.61683 9.19982 10196 ft 308 kts 87°
2026-05-07 19:55 48.61806 9.23279 10784 ft 323 kts 86°
2026-05-07 19:55 48.62187 9.26746 11106 ft 346 kts 74°
2026-05-07 19:56 48.63055 9.30205 11744 ft 356 kts 66°
2026-05-07 19:56 48.64042 9.33657 12609 ft 359 kts 66°
2026-05-07 19:56 48.65029 9.37150 13490 ft 363 kts 66°
2026-05-07 19:56 48.66023 9.40681 14259 ft 367 kts 66°
2026-05-07 19:57 48.67029 9.44257 14970 ft 372 kts 66°
2026-05-07 19:57 48.68048 9.47884 15685 ft 376 kts 66°
2026-05-07 19:57 48.69078 9.51554 16401 ft 381 kts 66°
2026-05-07 19:57 48.70118 9.55264 17093 ft 386 kts 66°
2026-05-07 19:58 48.71164 9.58999 17753 ft 391 kts 66°
2026-05-07 19:58 48.72233 9.62823 18416 ft 396 kts 66°
2026-05-07 19:58 48.73312 9.66692 18839 ft 399 kts 66°
2026-05-07 19:58 48.74393 9.70570 18981 ft 400 kts 66°
2026-05-07 19:59 48.75475 9.74461 19013 ft 400 kts 66°
2026-05-07 19:59 48.76554 9.78346 19011 ft 400 kts 66°
2026-05-07 19:59 48.77631 9.82233 19019 ft 400 kts 66°
2026-05-07 19:59 48.78708 9.86123 19023 ft 400 kts 66°
2026-05-07 20:00 48.79764 9.89946 19018 ft 400 kts 66°
2026-05-07 20:00 48.80857 9.93907 19020 ft 400 kts 66°
2026-05-07 20:00 48.81916 9.97754 19020 ft 400 kts 67°
2026-05-07 20:00 48.83002 10.01702 19029 ft 400 kts 67°
2026-05-07 20:01 48.84057 10.05546 19032 ft 400 kts 67°
2026-05-07 20:01 48.84891 10.09571 19035 ft 400 kts 79°
2026-05-07 20:01 48.85153 10.13785 19034 ft 402 kts 91°
2026-05-07 20:01 48.84889 10.17996 19033 ft 401 kts 98°
2026-05-07 20:02 48.84541 10.22202 19045 ft 401 kts 98°
2026-05-07 20:02 48.84200 10.26405 19053 ft 401 kts 98°
2026-05-07 20:02 48.83861 10.30599 19042 ft 401 kts 98°
2026-05-07 20:02 48.83521 10.34798 19052 ft 401 kts 98°
2026-05-07 20:03 48.83059 10.38974 19050 ft 399 kts 107°
2026-05-07 20:03 48.81996 10.42789 19048 ft 397 kts 123°
2026-05-07 20:03 48.80328 10.46085 19059 ft 393 kts 136°
2026-05-07 20:03 48.78440 10.49090 19048 ft 393 kts 136°
2026-05-07 20:04 48.76554 10.52095 19043 ft 393 kts 136°
2026-05-07 20:04 48.74656 10.55121 19044 ft 396 kts 136°
2026-05-07 20:04 48.72843 10.58014 19044 ft 395 kts 136°
2026-05-07 20:04 48.70949 10.61035 19042 ft 395 kts 136°
2026-05-07 20:05 48.69056 10.64052 19052 ft 395 kts 136°
2026-05-07 20:05 48.67160 10.67070 19045 ft 395 kts 136°
2026-05-07 20:05 48.65264 10.70082 19039 ft 395 kts 136°
2026-05-07 20:05 48.63371 10.73088 19038 ft 395 kts 136°
2026-05-07 20:06 48.61472 10.76099 19037 ft 395 kts 135°
2026-05-07 20:06 48.59819 10.79414 19038 ft 398 kts 120°
2026-05-07 20:06 48.58858 10.83345 19037 ft 401 kts 102°
2026-05-07 20:06 48.58612 10.87537 19034 ft 402 kts 92°
2026-05-07 20:07 48.58506 10.91776 19009 ft 402 kts 92°
2026-05-07 20:07 48.58405 10.95984 18802 ft 400 kts 92°
2026-05-07 20:07 48.58299 11.00170 18374 ft 398 kts 92°
2026-05-07 20:07 48.58187 11.04333 17808 ft 393 kts 92°
2026-05-07 20:08 48.58009 11.08417 17139 ft 384 kts 101°
2026-05-07 20:08 48.57195 11.12155 16537 ft 372 kts 120°
2026-05-07 20:08 48.55666 11.15177 15789 ft 363 kts 141°
2026-05-07 20:08 48.53648 11.17388 15051 ft 357 kts 149°
2026-05-07 20:09 48.51604 11.19470 14383 ft 353 kts 146°
2026-05-07 20:09 48.49726 11.21837 13669 ft 351 kts 141°
2026-05-07 20:09 48.47908 11.24292 12928 ft 347 kts 141°
2026-05-07 20:10 48.44446 11.28967 12205 ft 319 kts 141°
2026-05-07 20:10 48.42863 11.31167 12026 ft 302 kts 134°
2026-05-07 20:10 48.41836 11.33817 11851 ft 288 kts 107°
2026-05-07 20:10 48.41665 11.36712 11674 ft 270 kts 83°
2026-05-07 20:11 48.41884 11.39431 11472 ft 255 kts 83°
2026-05-07 20:11 48.42091 11.42011 11206 ft 244 kts 83°
2026-05-07 20:11 48.42293 11.44544 10771 ft 243 kts 83°
2026-05-07 20:11 48.42493 11.47061 10340 ft 241 kts 83°
2026-05-07 20:12 48.42692 11.49568 9911 ft 240 kts 83°
2026-05-07 20:12 48.42888 11.52049 9464 ft 237 kts 83°
2026-05-07 20:12 48.43081 11.54498 9030 ft 234 kts 83°
2026-05-07 20:12 48.43272 11.56916 8612 ft 231 kts 83°
2026-05-07 20:13 48.43460 11.59308 8195 ft 229 kts 83°
2026-05-07 20:13 48.43645 11.61677 7783 ft 226 kts 83°
2026-05-07 20:13 48.43826 11.63997 7399 ft 224 kts 83°
2026-05-07 20:13 48.44005 11.66311 7010 ft 221 kts 83°
2026-05-07 20:14 48.44183 11.68603 6634 ft 219 kts 83°
2026-05-07 20:14 48.44359 11.70870 6243 ft 217 kts 83°
2026-05-07 20:14 48.44532 11.73120 5829 ft 215 kts 83°
2026-05-07 20:14 48.44705 11.75353 5445 ft 213 kts 83°
2026-05-07 20:15 48.44874 11.77554 5068 ft 211 kts 83°
2026-05-07 20:15 48.45041 11.79736 4695 ft 208 kts 83°
2026-05-07 20:15 48.45206 11.81892 4314 ft 206 kts 83°
2026-05-07 20:15 48.45368 11.84026 4099 ft 200 kts 83°
2026-05-07 20:16 48.45523 11.86058 4002 ft 197 kts 83°
2026-05-07 20:16 48.45681 11.88146 3997 ft 203 kts 83°
2026-05-07 20:16 48.45841 11.90260 3998 ft 204 kts 83°
2026-05-07 20:16 48.46002 11.92380 4001 ft 203 kts 83°
2026-05-07 20:17 48.46162 11.94505 3999 ft 205 kts 83°
2026-05-07 20:17 48.46115 11.96629 3995 ft 202 kts 108°
2026-05-07 20:17 48.45593 11.98534 3995 ft 194 kts 114°
2026-05-07 20:17 48.45000 12.00350 3987 ft 192 kts 128°
2026-05-07 20:18 48.43988 12.01468 3994 ft 176 kts 158°
2026-05-07 20:18 48.42809 12.02110 3997 ft 182 kts 162°
2026-05-07 20:18 48.41610 12.02693 3997 ft 181 kts 167°
2026-05-07 20:18 48.40369 12.02976 3996 ft 178 kts 174°
2026-05-07 20:19 48.39191 12.03185 3957 ft 163 kts 174°
2026-05-07 20:19 48.38098 12.03072 3721 ft 158 kts 207°
2026-05-07 20:19 48.37185 12.02199 3394 ft 156 kts 225°
2026-05-07 20:19 48.36458 12.01002 3016 ft 156 kts 230°
2026-05-07 20:20 48.35935 11.99677 2730 ft 145 kts 256°
2026-05-07 20:20 48.35816 11.98179 2439 ft 145 kts 267°
2026-05-07 20:20 48.35725 11.96653 2424 ft 144 kts 266°
2026-05-07 20:20 48.35622 11.95165 2559 ft 146 kts 265°
2026-05-07 20:21 48.35508 11.93646 2678 ft 146 kts 265°
2026-05-07 20:21 48.35389 11.92125 2780 ft 147 kts 264°
2026-05-07 20:21 48.35267 11.90560 2976 ft 159 kts 264°
2026-05-07 20:21 48.35126 11.88756 2964 ft 187 kts 264°
2026-05-07 20:22 48.34957 11.86784 2703 ft 181 kts 263°
2026-05-07 20:22 48.34817 11.85003 2322 ft 163 kts 265°
2026-05-07 20:22 48.34693 11.83349 1902 ft 156 kts 264°
2026-05-07 20:22 48.34577 11.81804 1689 ft 141 kts 264°
2026-05-07 20:23 48.34465 11.80309 1506 ft 144 kts 264°
2026-05-07 20:23 48.34356 11.78868 1461 ft 122 kts 263°
2026-05-07 20:23 48.34285 11.77904 1469 ft 64 kts 263°
2026-05-07 20:23 48.34250 11.77509 1467 ft 27 kts 263°
2026-05-07 20:24 48.34275 11.77209 1465 ft 30 kts 290°
2026-05-07 20:24 48.34339 11.76988 1460 ft 20 kts 293°
2026-05-07 20:24 48.34365 11.76889 1460 ft 1 kts 292°
2026-05-07 20:24 48.34390 11.76802 1467 ft 20 kts 295°
2026-05-07 20:25 48.34434 11.76701 1457 ft 0 kts 333°
2026-05-07 20:25 48.34446 11.76699 1465 ft 5 kts 353°
2026-05-07 20:25 48.34542 11.76689 1462 ft 22 kts
2026-05-07 20:25 48.34575 11.76775 1466 ft 12 kts 83°
2026-05-07 20:26 48.34588 11.76940 1462 ft 19 kts 83°
2026-05-07 20:26 48.34605 11.77157 1466 ft 22 kts 84°
2026-05-07 20:26 48.34623 11.77397 1458 ft 24 kts 83°
2026-05-07 20:26 48.34643 11.77654 1464 ft 25 kts 84°
2026-05-07 20:27 48.34663 11.77922 1466 ft 27 kts 83°
2026-05-07 20:27 48.34685 11.78205 1460 ft 28 kts 83°
2026-05-07 20:27 48.34708 11.78506 1466 ft 30 kts 84°
2026-05-07 20:27 48.34732 11.78812 1466 ft 31 kts 83°
2026-05-07 20:28 48.34757 11.79141 1465 ft 32 kts 84°
2026-05-07 20:28 48.34766 11.79263 1467 ft 1 kts 83°
2026-05-07 20:28 48.34768 11.79298 1459 ft 6 kts 83°
2026-05-07 20:28 48.34775 11.79379 1461 ft 10 kts 83°
2026-05-07 20:29 48.34785 11.79505 1463 ft 14 kts 83°
2026-05-07 20:29 48.34838 11.79564 1462 ft 11 kts 356°
2026-05-07 20:29 48.34924 11.79546 1465 ft 14 kts 358°
2026-05-07 20:29 48.35018 11.79598 1464 ft 15 kts
2026-05-07 20:30 48.35128 11.79581 1467 ft 15 kts 353°
2026-05-07 20:30 48.35236 11.79559 1461 ft 11 kts 352°
2026-05-07 20:30 48.35279 11.79558 1464 ft 7 kts
2026-05-07 20:30 48.35308 11.79612 1465 ft 5 kts 73°
2026-05-07 20:31 48.35312 11.79657 1462 ft 6 kts 83°
2026-05-07 20:31 48.35322 11.79764 1467 ft 13 kts 83°